Regional Weather Roundup
Issued by NWS

Home | Current Version | Previous Version | Graphics & Text | Print | Product List | Glossary Off
Versions: 1 2 3 4 5 6 7 8 9 10 11 12 13 14 15 16 17 18 19 20 21 22 23 24 25 26 27 28 29 30 31 32 33 34 35 36 37 38 39 40 41 42 43 44 45 46 47 48 49 50

064
ASUS43 KMKX 242220
RWRWI

WISCONSIN REGIONAL WEATHER ROUNDUP
NATIONAL WEATHER SERVICE MILWAUKEE/SULLIVAN WI
400 PM CST TUE JAN 24 2017

NOTE: "FAIR" INDICATES FEW OR NO CLOUDS BELOW 12,000 FEET WITH NO
SIGNIFICANT WEATHER AND/OR OBSTRUCTIONS TO VISIBILITY.

WIZ001-002-006>008-014>016-023>028-242300-
NORTHWEST WISCONSIN

CITY           SKY/WX    TMP DP  RH WIND       PRES   REMARKS
SUPERIOR ARPT  CLOUDY    33  26  76 CALM      29.86R
ASHLAND        CLOUDY    33  26  75 NW3       29.85R
HAYWARD        CLOUDY    32  26  78 NW3       29.82S
SIREN          CLOUDY    32  27  83 E5        29.83S WCI  27
CUMBERLAND     CLOUDY    32  27  80 N6        29.81S WCI  26
RICE LAKE      CLOUDY    33  29  86 N6        29.82F WCI  27
CHETEK         CLOUDY    33  28  82 CALM      29.81F
LADYSMITH      CLOUDY    34  31  88 CALM      29.83R
EAU CLAIRE     CLOUDY    33  29  85 NE5       29.80F WCI  29
MENOMONIE        N/A    N/A N/A N/A MISG        N/A
NEW RICHMOND   CLOUDY    32  28  85 CALM      29.82R
OSCEOLA        CLOUDY    32  28  83 NE6       29.84F WCI  27
$$

WIZ003>005-009-010-017-018-242300-
NORTH CENTRAL WISCONSIN

CITY           SKY/WX    TMP DP  RH WIND       PRES   REMARKS
MANITOWISH WTR CLOUDY    32  32 100 N3        29.79S
ARBOR VITAE    CLOUDY    37  33  85 CALM      29.79F
WOODRUFF       CLOUDY    37  33  85 CALM      29.79F
RHINELANDER    CLOUDY    37  31  78 CALM      29.79S
EAGLE RIVER    CLOUDY    34  32  93 E5        29.79S WCI  30
LAND O LAKES   CLOUDY    34  32  93 CALM      29.80F
PHILLIPS       CLOUDY    32  29  89 CALM      29.79S
TOMAHAWK       CLOUDY    34  29  83 W3        29.80S
MEDFORD        CLOUDY    32  29  87 NE5       29.79S WCI  28
MERRILL        CLOUDY    35  31  84 CALM        N/A
$$

WIZ029-030-035-036-043>047-242300-
CENTRAL WISCONSIN

CITY           SKY/WX    TMP DP  RH WIND       PRES   REMARKS
WAUSAU         CLOUDY    35  29  78 CALM      29.79R
MOSINEE        CLOUDY    34  30  86 CALM      29.80S
MARSHFIELD     CLOUDY    34  28  79 NE3       29.78F
STEVENS POINT  CLOUDY    34  29  82 CALM      29.81S
WAUPACA        CLOUDY    38  32  80 CALM      29.82S
WAUTOMA        CLOUDY    36  30  80 CALM      29.82S
WISC RAPIDS    CLOUDY    36  30  79 NE5       29.81F WCI  32
CAMP DOUGLAS   CLOUDY    36  30  80 CALM      29.80S
$$

WIZ011>013-019>022-031-037>040-048>050-242300-
NORTHEAST WISCONSIN

CITY           SKY/WX    TMP DP  RH WIND       PRES   REMARKS
ANTIGO         CLOUDY    33  31  92 CALM      29.80R
SHAWANO        CLOUDY    40  33  75 SW3       29.81S
OCONTO         CLOUDY    38  33  82 CALM      29.82R
STURGEON BAY   CLOUDY    37  36  96 CALM      29.82S
GREEN BAY      CLOUDY    40  35  83 W6        29.81S
MANITOWOC      CLOUDY    39  35  86 MISG      29.83R
APPLETON       CLOUDY    36  34  93 N3        29.80S
CLINTONVILLE   CLOUDY    36  32  87 CALM      29.82S
OSHKOSH        CLOUDY    37  31  78 NW5       29.81S WCI  33
$$

WIZ032>034-041-042-053>061-242300-
SOUTHWEST WISCONSIN

CITY           SKY/WX    TMP DP  RH WIND       PRES   REMARKS
LA CROSSE      CLOUDY    37  30  75 E3        29.80F
SPARTA         CLOUDY    34  32  90 E5        29.82S WCI  30
VIROQUA        CLOUDY    34  32  93 SE5       29.78S WCI  30
BOSCOBEL       CLOUDY    37  31  78 CALM      29.80F
PRAIRIE DU CHI CLOUDY    35  31  86 CALM      29.79F
PLATTEVILLE    CLOUDY    35  34  97 E6        29.78F WCI  30
$$

WIZ056-057-062-063-064-067-068-242300-
SOUTH CENTRAL WISCONSIN

CITY           SKY/WX    TMP DP  RH WIND       PRES   REMARKS
REEDSBURG      CLOUDY    36  31  85 SE3       29.80S
BARABOO/DELLS  CLOUDY    35  31  84 E3        29.80S
LONE ROCK      CLOUDY    37  31  78 E7        29.81F WCI  32
MINERAL POINT  CLOUDY    36  34  93 E5        29.78F WCI  32
MADISON        CLOUDY    36  31  82 SE7       29.82S WCI  30
MIDDLETON      CLOUDY    37  33  83 E3        29.80F
WATERTOWN      CLOUDY    35  33  90 E3        29.82S
MONROE         CLOUDY    34  32  93 E8        29.78F WCI  27
JANESVILLE     CLOUDY    36  34  93 SE6       29.83S WCI  31
$$

WIZ051-052-058>065-066-070>072-242300-
SOUTHEAST WISCONSIN

CITY           SKY/WX    TMP DP  RH WIND       PRES   REMARKS
MILWAUKEE      CLOUDY    39  32  76 NW3       29.83S
WAUKESHA       CLOUDY    34  30  86 CALM      29.83S
MILWAUKEE/TIMM CLOUDY    37  30  75 CALM      29.84R
RACINE         CLOUDY    37  31  78 CALM      29.86R
KENOSHA        CLOUDY    37  32  82 CALM      29.83S
FOND DU LAC    CLOUDY    38  30  73 CALM      29.82R
SHEBOYGAN      CLOUDY    38  32  79 NW5       29.82R WCI  34
WEST BEND      CLOUDY    36  34  93 CALM      29.82S
JUNEAU         CLOUDY    35  32  90 CALM      29.83R
$$

LSZ147-162-242300-
LAKE SUPERIOR

STATION/POSITION TIME  TEMP    WIND        PRES    WAVE
                       AIR SEA DIR/SP/G            HT/PER
                 (UTC) (F)     (DEG/KT/KT) (MB)    (FT/S)
DEVILS ISLAND    2200   35     250/ 10/ 10 1011.1R
PORT WING        2130   33     260/  4/  5 1011.2R
SAXON HARBOR     2200   34     240/  5/ 12 1011.2
$$

LMZ867-665-643>646-242300-
LAKE MICHIGAN

STATION/POSITION TIME  TEMP    WIND        PRES    WAVE
                       AIR SEA DIR/SP/G            HT/PER
                 (UTC) (F)     (DEG/KT/KT) (MB)    (FT/S)
CHAMBERS ISLAND  2140   37      CALM  /  1 1009.5R
NORTHPORT PIER   2140   36     280/  5/  7 1009.8R
SISTER BAY       2135   34        CALM       N/A
KEWAUNEE LAKESHO 2154   39     320/  3/  7 1009.4R
SHEBOYGAN LAKESH 2200   38     330/  2/  3 1010.2R
PORT WASHINGTON  2130   38     270/  3/  5 1011.2R
KENOSHA   LAKESH 2200   36     100/  3/  4 1010.5
$$

TC  - TEMPERATURE IN CELSIUS
VSB - VISIBILITY IN STATUTE MILES
WCI - WIND CHILL INDEX
HX  - HEAT INDEX





USA.gov is the U.S. government's official web portal to all federal, state and local government web resources and services.